DW0218 Weather Reports


time (UTC)temp
C
wind
direction
speed
KPH
gust
KPH
rain 1hr
cm
rain 24hr
cm
rain mn
cm
humidity
%
barometer
mb
20260507101805 17 286 3.2 11.3 0.00 0.00 0.00 50 1016.0
20260507100806 16 338 3.2 8.0 0.00 0.00 0.00 52 1016.0
20260507094805 18 225 3.2 11.3 0.00 0.00 0.00 50 1016.0
20260507093806 18 266 4.8 11.3 0.00 0.00 0.00 51 1016.0
20260507085805 16 235 6.4 12.9 0.00 0.00 0.00 64 1016.0
20260507083805 15 198 4.8 9.7 0.00 0.00 0.00 63 1016.0
20260507082805 15 224 0.0 4.8 0.00 0.00 0.00 58 1016.0
20260507080805 15 315 3.2 8.0 0.00 0.00 0.00 60 1016.0
20260507075805 15 226 3.2 8.0 0.00 0.00 0.00 71 1016.0
20260507073805 12 338 1.6 8.0 0.00 0.00 0.00 74 1016.0
20260507072806 11 41 3.2 8.0 0.00 0.00 0.00 79 1016.0
20260507071805 10 262 3.2 8.0 0.00 0.00 0.00 83 1016.0
20260507070805 9 229 3.2 4.8 0.00 0.00 0.00 88 1016.0
20260507065806 8 0 0.0 4.8 0.00 0.00 0.00 91 1016.0
20260507064805 8 0 0.0 0.0 0.00 0.00 0.00 92 1016.0
20260507062805 7 0 0.0 0.0 0.00 0.00 0.00 94 1016.0
20260507060805 6 0 0.0 0.0 0.00 0.00 0.00 96 1015.0
20260507055804 6 0 0.0 0.0 0.00 0.00 0.00 95 1015.0
20260507053805 6 0 0.0 0.0 0.00 0.00 0.00 95 1015.0
20260507051804 5 0 0.0 0.0 0.00 0.00 0.00 95 1015.0
20260507050805 5 0 0.0 0.0 0.00 0.00 0.00 95 1015.0
20260507043805 5 0 0.0 0.0 0.00 0.00 0.00 95 1015.0
20260507041805 5 0 0.0 0.0 0.00 0.00 0.00 94 1015.0
20260507040805 5 0 0.0 1.6 0.00 0.00 0.00 94 1015.0
20260507034805 5 0 0.0 0.0 0.00 0.00 0.00 94 1015.0
20260507033805 5 0 0.0 0.0 0.00 0.00 0.00 94 1015.0
20260507032805 5 0 0.0 1.6 0.00 0.00 0.00 93 1015.0
20260507030805 5 0 0.0 0.0 0.00 0.00 0.00 91 1015.0
20260507025805 5 0 0.0 0.0 0.00 0.00 0.00 90 1015.0
20260507024805 5 0 0.0 0.0 0.00 0.00 0.00 89 1015.0
20260507022805 5 0 0.0 0.0 0.00 0.00 0.00 87 1015.0
20260507020805 5 0 0.0 0.0 0.00 0.00 0.00 86 1015.0
20260507011805 6 0 0.0 0.0 0.00 0.00 0.00 84 1015.0
20260507005806 6 0 0.0 0.0 0.00 0.00 0.00 82 1015.0
20260507004805 6 0 0.0 1.6 0.00 0.00 0.00 82 1015.0
20260507002806 7 0 0.0 1.6 0.00 0.00 0.00 80 1015.0
20260507001805 7 0 0.0 0.0 0.00 0.00 0.00 78 1015.0
20260507000805 7 0 0.0 0.0 0.00 0.00 0.00 77 1015.0
20260506234805 7 0 0.0 0.0 0.00 0.00 0.00 75 1015.0
20260506232805 8 0 0.0 0.0 0.00 0.00 0.00 73 1015.0
20260506230820 8 0 0.0 0.0 0.00 0.00 0.00 71 1015.0
20260506222805 9 0 0.0 0.0 0.00 0.00 0.00 69 1014.0
20260506221804 9 0 0.0 0.0 0.00 0.00 0.00 68 1014.0
20260506220805 9 0 0.0 0.0 0.00 0.00 0.00 67 1014.0
20260506215805 10 0 0.0 0.0 0.00 0.00 0.00 67 1014.0
20260506214805 10 0 0.0 0.0 0.00 0.00 0.00 66 1014.0
20260506203806 11 0 0.0 0.0 0.00 0.00 0.00 62 1014.0
20260506194804 12 0 0.0 3.2 0.00 0.00 0.00 56 1014.0
20260506192806 12 338 0.0 3.2 0.00 0.00 0.00 55 1014.0
20260506190806 12 0 0.0 1.6 0.00 0.00 0.00 53 1013.0
20260506185806 12 0 0.0 1.6 0.00 0.00 0.00 53 1013.0
20260506184805 12 0 0.0 0.0 0.00 0.00 0.00 52 1013.0
20260506182805 12 0 1.6 4.8 0.00 0.00 0.00 51 1013.0
20260506181805 13 0 0.0 3.2 0.00 0.00 0.00 50 1012.9
20260506180806 13 338 1.6 3.2 0.00 0.00 0.00 49 1012.0
20260506165805 14 338 0.0 3.2 0.00 0.00 0.00 45 1012.0
20260506163805 14 0 0.0 4.8 0.00 0.00 0.00 45 1012.0
20260506161806 14 0 0.0 4.8 0.00 0.00 0.00 44 1012.0
20260506160805 15 45 0.0 8.0 0.00 0.00 0.00 44 1012.0
20260506155806 15 41 3.2 3.2 0.00 0.00 0.00 45 1012.0
20260506153806 15 22 1.6 4.8 0.00 0.00 0.00 44 1012.0
20260506144805 15 9 3.2 8.0 0.00 0.00 0.00 44 1012.0
20260506143805 15 26 0.0 4.8 0.00 0.00 0.00 44 1012.0
20260506140805 15 0 1.6 4.8 0.00 0.00 0.00 44 1012.0
20260506134805 15 99 0.0 4.8 0.00 0.00 0.00 44 1012.0
20260506131805 16 32 1.6 4.8 0.00 0.00 0.00 44 1012.0
20260506130806 15 1 1.6 4.8 0.00 0.00 0.00 44 1012.0
20260506125805 15 355 1.6 4.8 0.00 0.00 0.00 44 1013.0
20260506124805 15 357 1.6 9.7 0.00 0.00 0.00 43 1013.0
20260506122805 15 1 1.6 8.0 0.00 0.00 0.00 44 1012.0
20260506121805 15 342 3.2 9.7 0.00 0.00 0.00 44 1012.0
20260506115806 15 0 1.6 8.0 0.00 0.00 0.00 44 1013.0
20260506114805 15 14 1.6 8.0 0.00 0.00 0.00 44 1013.0
20260506105805 15 338 1.6 4.8 0.00 0.00 0.00 46 1013.0
20260506104805 15 0 1.6 4.8 0.00 0.00 0.00 47 1013.0